sat.trackr.live / text

‹ back to catalog

STARLINK-34077

NORAD 64009 · 2025-101R

PAYLOAD ACTIVE UNKNOWN

§ Identity

Operator
Country
US
Launch date
2025-05-14
Launch site
AFETR
Launch vehicle
Mass (kg)
RCS (m²)

Purposes: comms

External: N2YO · Heavens-Above · Gunter

§ Orbital elements

Epoch: 2026-05-24T10:39:20.152800Z

Period
94.27 min
Inclination
42.9991°
Eccentricity
0.0001386
Mean motion
15.27605509 rev/d
Perigee alt
482.0 km
Apogee alt
483.9 km
Semi-major
6,861.1 km
B*
1.1279e-3
RAAN
289.8987°
Arg perigee
271.7145°
Mean anomaly
88.3548°
Rev number
5,864

§ Raw data

STARLINK-340771 64009U 25101R   26144.44398325  .00030928  00000+0  11279-2 0  99962 64009  42.9991 289.8987 0001386 271.7145  88.3548 15.27605509 58640

JSON: /api/v1/satellites/64009 · /tle

For live sub-satellite position, see the globe view (requires WebGL).

§ Visibility from observer

Set your observer location to see the next 7 days of passes ≥ 10°. The values pass through the URL so the page stays shareable.

No JS? Fill the form by hand. The geolocation button needs JavaScript.